Regional Weather Roundup
Issued by NWS

Home | Current Version | Previous Version | Text Only | Print | Product List | Glossary On
Versions: 1 2 3 4 5 6 7 8 9 10 11 12 13 14 15 16 17 18 19 20 21 22 23 24 25 26 27 28 29 30 31 32 33 34 35 36 37 38 39 40 41 42 43 44 45 46 47 48 49 50
000
ASUS43 KDTX 290010
RWRMI
MICHIGAN HOURLY REGIONAL WEATHER ROUNDUP
NATIONAL WEATHER SERVICE DETROIT/PONTIAC MI
700 PM EST SUN DEC 28 2014

NOTE: "FAIR" INDICATES FEW OR NO CLOUDS BELOW 12,000 FEET WITH NO
SIGNIFICANT WEATHER AND/OR OBSTRUCTION TO VISIBILITY.

MIZ047>049-052>055-059>063-066>070-074>076-081>083-290100-
SOUTHEAST LOWER MICHIGAN

CITY           SKY/WX    TMP DP  RH WIND       PRES   REMARKS
ADRIAN         CLEAR     30  23  75 W5        30.16S
6HR MIN TEMP:  30; 6HR MAX TEMP:  35;

ALMA           CLEAR     28  21  74 W6        30.14S
ANN ARBOR      CLEAR     26  22  84 CALM      30.14R
BAD AXE        CLEAR     29  24  79 W5        30.12R
6HR MIN TEMP:  29; 6HR MAX TEMP:  34;

DETROIT CITY   CLEAR     34  20  56 NW3       30.15R
6HR MIN TEMP:  34; 6HR MAX TEMP:  39;

DETROIT        CLEAR     30  22  72 W6        30.15R
6HR MIN TEMP:  30; 6HR MAX TEMP:  38;

FLINT          CLEAR     29  21  72 SW6       30.13F
6HR MIN TEMP:  29; 6HR MAX TEMP:  36;

GROSSE ILE     CLEAR     32  25  74 CALM      30.14S
HILLSDALE      CLEAR     29  22  76 W5        30.14R
6HR MIN TEMP:  29; 6HR MAX TEMP:  35;

HOWELL         CLEAR     28  22  77 W6        30.13S
6HR MIN TEMP:  28; 6HR MAX TEMP:  35;


CITY           SKY/WX    TMP DP  RH WIND       PRES   REMARKS
JACKSON        CLEAR     29  20  69 W6        30.14R
6HR MIN TEMP:  29; 6HR MAX TEMP:  37;

LAMBERTVILLE   CLEAR     32  27  80 W3        30.17S
LANSING        CLEAR     30  21  69 W8        30.14S
6HR MIN TEMP:  30; 6HR MAX TEMP:  34;

LAPEER         NOT AVBL
MASON          CLEAR     29  20  71 CALM      30.14S
MONROE         CLEAR     28  25  86 CALM      30.14S
MT. CLEMENS    PTCLDY    31  19  60 NW5       30.11R
6HR MIN TEMP:  31; 6HR MAX TEMP:  38;

PONTIAC        PTCLDY    28  21  75 W5        30.11S
6HR MIN TEMP:  28; 6HR MAX TEMP:  36;

PORT HOPE        N/A     32  19  58 W8G18     30.09R
6HR MIN TEMP:  32; 6HR MAX TEMP:  35;

PORT HURON     CLEAR     30  21  69 W3        30.14R
TRI CITIES     CLEAR     29  21  72 W8        30.14R
6HR MIN TEMP:  29; 6HR MAX TEMP:  36;

YPSILANTI      CLEAR     32  23  69 SW3       30.15R
6HR MIN TEMP:  32; 6HR MAX TEMP:  40;

$$
MIZ043>046-050>051-056>058-064>065-071>073-077>080-290100-
SOUTHWEST LOWER MICHIGAN

CITY           SKY/WX    TMP DP  RH WIND       PRES   REMARKS
BATTLE CREEK   CLEAR     28  20  71 W7        30.15S
6HR MIN TEMP:  28; 6HR MAX TEMP:  37;

BENTON HARBOR  CLEAR     26  20  77 CALM      30.18S
6HR MIN TEMP:  25; 6HR MAX TEMP:  32;

BIG RAPIDS     CLOUDY    28  21  73 NW7       30.14R
6HR MIN TEMP:  28; 6HR MAX TEMP:  31;

COLDWATER      CLEAR     28  21  77 W3        30.16R
6HR MIN TEMP:  28; 6HR MAX TEMP:  36;

HOLLAND        MOCLDY    32  21  64 W3        30.18R
6HR MIN TEMP:  31; 6HR MAX TEMP:  36;

GRAND RAPIDS   PTCLDY    29  20  69 W8        30.16R
6HR MIN TEMP:  29; 6HR MAX TEMP:  36;

KALAMAZOO      CLEAR     28  20  71 W5        30.17R
6HR MIN TEMP:  28; 6HR MAX TEMP:  36;

MARSHALL       CLEAR     25  19  78 W5        30.14S
MUSKEGON       MOCLDY    32  21  64 NW9       30.18R
6HR MIN TEMP:  31; 6HR MAX TEMP:  34;

$$
MIZ016>042-290100-
NORTHERN LOWER MICHIGAN

CITY           SKY/WX    TMP DP  RH WIND       PRES   REMARKS
ALPENA         LGT SNOW  26  20  77 NW14G21   30.11R
6HR MIN TEMP:  26; 6HR MAX TEMP:  34; 6HR PCP: TRACE;

BEAVER ISLAND  CLOUDY    23  14  67 NW8G16    30.15R
6HR MIN TEMP:  23; 6HR MAX TEMP:  28;

BELLAIRE       CLOUDY    28  15  57 W7        30.14S
6HR MIN TEMP:  28; 6HR MAX TEMP:  30;

CADILLAC       CLOUDY    24  16  71 W8        30.10S
CHARLEVOIX     CLOUDY    26  15  63 NW13      30.16R
6HR MIN TEMP:  26; 6HR MAX TEMP:  29;

FRANKFORT      CLOUDY    27  16  63 NW8       30.16S
GAYLORD        CLOUDY    24  14  65 W9        30.08R
6HR MIN TEMP:  24; 6HR MAX TEMP:  26; 6HR PCP: TRACE;

GRAYLING       CLOUDY    26  16  67 W12       30.11R
6HR MIN TEMP:  26; 6HR MAX TEMP:  28;

HARBOR SPRINGS FLURRIES  25  16  68 NW8       30.13R
HOUGHTON LAKE  CLOUDY    26  16  65 W13G20    30.11R
6HR MIN TEMP:  26; 6HR MAX TEMP:  31;

MANISTEE       CLOUDY    28  16  59 NW12G17   30.17S
OSCODA         PTCLDY    30  17  57 W14G20    30.10R
PELLSTON       FLURRIES  24  15  68 NW16      30.13R
6HR MIN TEMP:  24; 6HR MAX TEMP:  29; 6HR PCP: TRACE;

TRAVERSE CITY  CLOUDY    28  16  60 NW8       30.14R
6HR MIN TEMP:  28; 6HR MAX TEMP:  30; 6HR PCP: TRACE;

$$
MIZ007>008-015-290100-
EASTERN UPPER MICHIGAN

CITY           SKY/WX    TMP DP  RH WIND       PRES   REMARKS
KINROSS        PTCLDY    19  16  86 W10       30.09R
6HR MIN TEMP:  19; 6HR MAX TEMP:  27;

MACKINAC ISLAN CLOUDY    23  16  74 NW15G21   30.11R
6HR MIN TEMP:  22; 6HR MAX TEMP:  28;

NEWBERRY       FLURRIES  17  15  88 W10       30.11R
6HR MIN TEMP:  17; 6HR MAX TEMP:  24;

S. S. MARIE    FLURRIES  23  10  57 NW16G24   30.05F
6HR MIN TEMP:  21; 6HR MAX TEMP:  26; 6HR PCP:  0.03;

$$
MIZ004>006-011>014-085-290100-
CENTRAL UPPER MICHIGAN

CITY           SKY/WX    TMP DP  RH WIND       PRES   REMARKS
MANISTIQUE     PTCLDY    16  13  86 NW7       30.16R
6HR MIN TEMP:  16; 6HR MAX TEMP:  26;

ESCANABA       PTCLDY    18   9  68 NW6       30.19R
6HR MIN TEMP:  18; 6HR MAX TEMP:  25;

MENOMINEE      CLOUDY    21  12  68 NW6       30.19R
6HR MIN TEMP:  21; 6HR MAX TEMP:  27;

SAWYER-GWINN   CLEAR      9   5  85 CALM      30.14R
$$
MIZ001>003-009>011-084-290100-
WESTERN UPPER MICHIGAN

CITY           SKY/WX    TMP DP  RH WIND       PRES   REMARKS
IRON MOUNTAIN    N/A      9   4  80 NW5       30.16R
6HR MIN TEMP:   9; 6HR MAX TEMP:  22; 6HR PCP: TRACE;

HOUGHTON       CLOUDY    14   6  70 NW15      30.15R WCI  -1
6HR MIN TEMP:  12; 6HR MAX TEMP:  15; 6HR PCP: TRACE;

COPPER HARBOR    N/A     19  11  70 N18G26    30.16S
6HR MIN TEMP:  17; 6HR MAX TEMP:  19; 6HR PCP:  0.01;

IRONWOOD       CLOUDY     7   0  72 W6        30.18R
6HR MIN TEMP:   7; 6HR MAX TEMP:  16;

$$

ABBREVIATIONS USED IN REMARKS
   TC - TEMPERATURE IN CELSIUS
  WCI - WIND CHILL INDEX
   HX - HEAT INDEX
  VSB - VISIBILITY




USA.gov is the U.S. government's official web portal to all federal, state and local government web resources and services.